Location: Unspecified
(0.0000°N, 0.0000°E)
Time: 00:55:13
(UTC+01:00)

Cosmos 2263 Rocket - Visible Passes

Search period start: 20 February 2018 00:00
Search period end: 02 March 2018 00:00
Orbit: 824 x 848 km, 71.0° (Epoch: 19 February)

Date Brightness Start Highest point End Pass type
(mag) Time Alt. Az. Time Alt. Az. Time Alt. Az.
20 Feb 2.1 20:36:43 10° SSW 20:42:17 84° WNW 20:46:15 20° NNE visible
21 Feb 2.1 20:19:59 10° SSW 20:25:33 87° ESE 20:31:06 10° NNE visible
22 Feb 2.1 20:03:17 10° S 20:08:50 78° ESE 20:14:22 10° NNE visible
23 Feb 2.1 19:46:35 10° S 19:52:07 69° ESE 19:57:37 10° NNE visible
24 Feb 5.0 06:48:17 10° NE 06:51:52 17° ENE 06:55:27 10° ESE visible
24 Feb 2.2 19:29:54 10° S 19:35:23 61° ESE 19:40:50 10° NNE visible
25 Feb 5.1 06:31:59 10° NE 06:35:09 15° ENE 06:38:18 10° ESE visible
26 Feb 5.1 06:15:47 10° NE 06:18:25 13° ENE 06:21:03 10° ESE visible
26 Feb 5.3 20:44:38 10° W 20:45:35 10° WNW 20:46:32 10° WNW visible
27 Feb 5.3 05:59:47 10° NE 06:01:41 12° ENE 06:03:36 10° E visible
27 Feb 5.2 20:26:47 10° W 20:28:51 12° WNW 20:30:55 10° NW visible
28 Feb 5.5 05:44:39 10° ENE 05:44:57 10° ENE 05:45:15 10° ENE visible
28 Feb 5.1 20:09:23 10° WSW 20:12:07 14° WNW 20:14:50 10° NW visible
01 Mar 5.0 19:52:10 10° WSW 19:55:23 16° WNW 19:58:36 10° NW visible
